Time,TemperatureF,DewpointF,PressureIn,WindDirection,WindDirectionDegrees,WindSpeedMPH,WindSpeedGustMPH,Humidity,HourlyPrecipIn,Conditions,Clouds,dailyrainin,SoftwareType,DateUTC
2013-02-13 00:00:00,36.5,24.0,29.92,WNW,292,10.3,12.8,59,0.00,,,0.00,Rainwise IP-100,2013-02-13 05:00:00,
2013-02-13 00:05:00,36.6,24.0,29.93,WNW,292,8.2,13.3,59,0.00,,,0.00,Rainwise IP-100,2013-02-13 05:05:00,
2013-02-13 00:10:00,36.6,24.0,29.93,WNW,292,6.5,10.0,59,0.00,,,0.00,Rainwise IP-100,2013-02-13 05:10:00,
2013-02-13 00:15:00,36.4,23.0,29.93,WNW,292,7.9,11.0,59,0.00,,,0.00,Rainwise IP-100,2013-02-13 05:15:00,
2013-02-13 00:20:00,36.4,23.0,29.94,NW,315,6.5,11.2,59,0.00,,,0.00,Rainwise IP-100,2013-02-13 05:20:00,
2013-02-13 00:25:00,36.5,24.0,29.93,WNW,292,7.9,12.4,59,0.00,,,0.00,Rainwise IP-100,2013-02-13 05:25:00,
2013-02-13 00:30:00,36.5,24.0,29.93,WNW,292,7.5,8.6,59,0.00,,,0.00,Rainwise IP-100,2013-02-13 05:30:00,
2013-02-13 00:36:00,36.5,24.0,29.93,WNW,292,5.1,9.3,59,0.00,,,0.00,Rainwise IP-100,2013-02-13 05:36:00,
2013-02-13 00:41:00,36.3,23.0,29.94,WNW,292,7.0,7.0,59,0.00,,,0.00,Rainwise IP-100,2013-02-13 05:41:00,
2013-02-13 00:46:00,36.2,23.0,29.93,WNW,292,4.0,7.9,59,0.00,,,0.00,Rainwise IP-100,2013-02-13 05:46:00,
2013-02-13 00:51:00,35.9,23.0,29.93,WSW,247,3.5,4.4,59,0.00,,,0.00,Rainwise IP-100,2013-02-13 05:51:00,
2013-02-13 00:56:00,35.7,24.0,29.93,WSW,247,3.5,5.6,60,0.00,,,0.00,Rainwise IP-100,2013-02-13 05:56:00,
2013-02-13 01:01:00,35.8,24.0,29.94,WSW,247,4.2,8.4,60,0.00,,,0.00,Rainwise IP-100,2013-02-13 06:01:00,
2013-02-13 01:06:00,35.8,24.0,29.93,WSW,247,4.4,6.1,60,0.00,,,0.00,Rainwise IP-100,2013-02-13 06:06:00,
2013-02-13 01:11:00,35.6,24.0,29.93,WSW,247,4.7,6.8,60,0.00,,,0.00,Rainwise IP-100,2013-02-13 06:11:00,
2013-02-13 01:16:00,35.6,24.0,29.94,West,270,4.9,5.6,61,0.00,,,0.00,Rainwise IP-100,2013-02-13 06:16:00,
2013-02-13 01:22:00,35.5,24.0,29.94,WSW,247,7.7,7.7,61,0.00,,,0.00,Rainwise IP-100,2013-02-13 06:22:00,
2013-02-13 01:25:00,35.5,24.0,29.94,WSW,247,6.3,8.6,61,0.00,,,0.00,Rainwise IP-100,2013-02-13 06:25:00,
2013-02-13 01:26:00,35.5,24.0,29.94,WSW,247,5.8,8.6,61,0.00,,,0.00,Rainwise IP-100,2013-02-13 06:26:00,
2013-02-13 01:31:00,35.5,24.0,29.95,WSW,247,7.0,8.4,61,0.00,,,0.00,Rainwise IP-100,2013-02-13 06:31:00,
2013-02-13 01:36:00,35.3,23.0,29.95,WSW,247,5.6,7.7,61,0.00,,,0.00,Rainwise IP-100,2013-02-13 06:36:00,
2013-02-13 01:41:00,35.1,23.0,29.95,WSW,247,5.1,9.3,62,0.00,,,0.00,Rainwise IP-100,2013-02-13 06:41:00,
2013-02-13 01:46:00,35.0,23.0,29.95,WSW,247,2.3,8.6,62,0.00,,,0.00,Rainwise IP-100,2013-02-13 06:46:00,
2013-02-13 01:51:00,34.9,24.0,29.95,WSW,247,3.3,6.1,63,0.00,,,0.00,Rainwise IP-100,2013-02-13 06:51:00,
2013-02-13 01:57:00,34.8,24.0,29.95,WSW,247,9.3,9.3,63,0.00,,,0.00,Rainwise IP-100,2013-02-13 06:57:00,
2013-02-13 02:02:00,34.7,24.0,29.96,WSW,247,6.3,10.3,64,0.00,,,0.00,Rainwise IP-100,2013-02-13 07:02:00,
2013-02-13 02:07:00,34.6,24.0,29.96,WSW,247,5.8,9.1,65,0.00,,,0.00,Rainwise IP-100,2013-02-13 07:07:00,
2013-02-13 02:12:00,34.5,24.0,29.96,WSW,247,5.8,10.5,65,0.00,,,0.00,Rainwise IP-100,2013-02-13 07:12:00,
2013-02-13 02:17:00,34.5,24.0,29.96,WSW,247,5.4,9.1,66,0.00,,,0.00,Rainwise IP-100,2013-02-13 07:17:00,
2013-02-13 02:18:00,34.5,24.0,29.96,WSW,247,6.3,9.1,66,0.00,,,0.00,Rainwise IP-100,2013-02-13 07:18:00,
2013-02-13 02:19:00,34.5,24.0,29.96,WSW,247,4.9,7.7,66,0.00,,,0.00,Rainwise IP-100,2013-02-13 07:19:00,
2013-02-13 02:22:00,34.5,24.0,29.96,WSW,247,6.1,9.1,66,0.00,,,0.00,Rainwise IP-100,2013-02-13 07:22:00,
2013-02-13 02:24:00,34.5,24.0,29.96,WSW,247,5.8,9.1,66,0.00,,,0.00,Rainwise IP-100,2013-02-13 07:24:00,
2013-02-13 02:25:00,34.5,24.0,29.96,WSW,247,7.2,9.1,66,0.00,,,0.00,Rainwise IP-100,2013-02-13 07:25:00,
2013-02-13 02:28:00,34.5,24.0,29.96,WSW,247,5.4,10.0,66,0.00,,,0.00,Rainwise IP-100,2013-02-13 07:28:00,
2013-02-13 02:30:00,34.5,24.0,29.96,West,270,5.6,10.0,67,0.00,,,0.00,Rainwise IP-100,2013-02-13 07:30:00,
2013-02-13 02:33:00,34.4,24.0,29.96,West,270,6.5,8.9,67,0.00,,,0.00,Rainwise IP-100,2013-02-13 07:33:00,
2013-02-13 02:38:00,34.2,24.0,29.95,WSW,247,6.8,8.4,67,0.00,,,0.00,Rainwise IP-100,2013-02-13 07:38:00,
2013-02-13 02:43:00,34.1,24.0,29.95,WSW,247,6.1,9.8,67,0.00,,,0.00,Rainwise IP-100,2013-02-13 07:43:00,
2013-02-13 02:48:00,34.0,26.0,29.96,WSW,247,6.8,8.6,68,0.00,,,0.00,Rainwise IP-100,2013-02-13 07:48:00,
2013-02-13 02:54:00,34.0,26.0,29.95,West,270,5.8,8.6,68,0.00,,,0.00,Rainwise IP-100,2013-02-13 07:54:00,
2013-02-13 02:59:00,34.0,26.0,29.95,West,270,4.4,7.9,68,0.00,,,0.00,Rainwise IP-100,2013-02-13 07:59:00,
2013-02-13 03:04:00,33.9,26.0,29.95,WNW,292,4.4,6.8,68,0.00,,,0.00,Rainwise IP-100,2013-02-13 08:04:00,
2013-02-13 03:09:00,33.8,26.0,29.95,WNW,292,4.0,6.1,68,0.00,,,0.00,Rainwise IP-100,2013-02-13 08:09:00,
2013-02-13 03:14:00,33.8,26.0,29.95,West,270,5.6,7.0,68,0.00,,,0.00,Rainwise IP-100,2013-02-13 08:14:00,
2013-02-13 03:19:00,33.8,26.0,29.95,West,270,4.9,7.2,68,0.00,,,0.00,Rainwise IP-100,2013-02-13 08:19:00,
2013-02-13 03:24:00,33.7,26.0,29.95,WNW,292,5.8,6.3,68,0.00,,,0.00,Rainwise IP-100,2013-02-13 08:24:00,
2013-02-13 03:29:00,33.6,26.0,29.95,WNW,292,4.9,7.0,69,0.00,,,0.00,Rainwise IP-100,2013-02-13 08:29:00,
2013-02-13 03:35:00,33.6,26.0,29.95,West,270,5.1,7.0,69,0.00,,,0.00,Rainwise IP-100,2013-02-13 08:35:00,
2013-02-13 03:40:00,33.6,26.0,29.94,WNW,292,6.1,8.2,69,0.00,,,0.00,Rainwise IP-100,2013-02-13 08:40:00,
2013-02-13 03:45:00,33.5,26.0,29.95,WNW,292,6.1,8.2,69,0.00,,,0.00,Rainwise IP-100,2013-02-13 08:45:00,
2013-02-13 03:50:00,33.4,24.0,29.94,WNW,292,6.5,7.5,69,0.00,,,0.00,Rainwise IP-100,2013-02-13 08:50:00,
2013-02-13 03:55:00,33.3,24.0,29.94,WNW,292,4.9,7.0,69,0.00,,,0.00,Rainwise IP-100,2013-02-13 08:55:00,
2013-02-13 04:00:00,33.1,24.0,29.94,WNW,292,5.4,6.5,69,0.00,,,0.00,Rainwise IP-100,2013-02-13 09:00:00,
2013-02-13 04:05:00,33.0,24.0,29.94,WNW,292,5.1,6.5,70,0.00,,,0.00,Rainwise IP-100,2013-02-13 09:05:00,
2013-02-13 04:11:00,32.8,24.0,29.94,WNW,292,4.9,7.0,70,0.00,,,0.00,Rainwise IP-100,2013-02-13 09:11:00,
2013-02-13 04:16:00,32.5,24.0,29.93,NW,315,4.0,4.9,70,0.00,,,0.00,Rainwise IP-100,2013-02-13 09:16:00,
2013-02-13 04:21:00,32.1,24.0,29.92,NNW,337,3.5,4.4,72,0.00,,,0.00,Rainwise IP-100,2013-02-13 09:21:00,
2013-02-13 04:26:00,31.8,24.0,29.92,NNW,337,4.2,4.4,73,0.00,,,0.00,Rainwise IP-100,2013-02-13 09:26:00,
2013-02-13 04:31:00,31.5,26.0,29.92,NNW,337,3.7,4.4,75,0.00,,,0.00,Rainwise IP-100,2013-02-13 09:31:00,
2013-02-13 04:36:00,31.0,24.0,29.92,NNW,337,3.0,4.0,76,0.00,,,0.00,Rainwise IP-100,2013-02-13 09:36:00,
2013-02-13 04:41:00,30.4,24.0,29.92,NNW,337,4.2,4.2,78,0.00,,,0.00,Rainwise IP-100,2013-02-13 09:41:00,
2013-02-13 04:46:00,29.9,26.0,29.91,NNW,337,3.7,5.4,80,0.00,,,0.00,Rainwise IP-100,2013-02-13 09:46:00,
2013-02-13 04:52:00,29.8,26.0,29.91,NNW,337,2.8,4.0,80,0.00,,,0.00,Rainwise IP-100,2013-02-13 09:52:00,
2013-02-13 04:57:00,29.7,26.0,29.91,NNW,337,2.8,3.5,80,0.00,,,0.00,Rainwise IP-100,2013-02-13 09:57:00,
2013-02-13 05:02:00,29.3,24.0,29.91,NNW,337,3.0,3.5,82,0.00,,,0.00,Rainwise IP-100,2013-02-13 10:02:00,
2013-02-13 05:07:00,29.1,24.0,29.91,NNW,337,3.3,4.2,82,0.00,,,0.00,Rainwise IP-100,2013-02-13 10:07:00,
2013-02-13 05:12:00,29.3,24.0,29.90,NNW,337,3.5,4.2,82,0.00,,,0.00,Rainwise IP-100,2013-02-13 10:12:00,
2013-02-13 05:17:00,29.6,26.0,29.91,NNW,337,2.8,4.0,81,0.00,,,0.00,Rainwise IP-100,2013-02-13 10:17:00,
2013-02-13 05:20:00,29.5,26.0,29.91,NNW,337,3.3,3.5,81,0.00,,,0.00,Rainwise IP-100,2013-02-13 10:20:00,
2013-02-13 05:25:00,29.3,24.0,29.91,NNW,337,3.5,3.5,82,0.00,,,0.00,Rainwise IP-100,2013-02-13 10:25:00,
2013-02-13 05:30:00,29.1,24.0,29.90,NNW,337,3.3,4.0,83,0.00,,,0.00,Rainwise IP-100,2013-02-13 10:30:00,
2013-02-13 05:35:00,29.0,24.0,29.90,NNW,337,4.4,4.4,84,0.00,,,0.00,Rainwise IP-100,2013-02-13 10:35:00,
2013-02-13 05:40:00,28.9,24.0,29.91,NNW,337,3.5,4.4,84,0.00,,,0.00,Rainwise IP-100,2013-02-13 10:40:00,
2013-02-13 05:43:00,28.9,24.0,29.91,NNW,337,3.0,3.7,83,0.00,,,0.00,Rainwise IP-100,2013-02-13 10:43:00,
2013-02-13 05:48:00,29.0,24.0,29.91,NNW,337,2.8,3.5,83,0.00,,,0.00,Rainwise IP-100,2013-02-13 10:48:00,
2013-02-13 05:53:00,29.1,24.0,29.91,NNW,337,4.0,4.2,84,0.00,,,0.00,Rainwise IP-100,2013-02-13 10:53:00,
2013-02-13 05:58:00,29.3,24.0,29.91,NNW,337,2.8,4.4,83,0.00,,,0.00,Rainwise IP-100,2013-02-13 10:58:00,
2013-02-13 06:03:00,29.2,24.0,29.91,NNW,337,2.3,3.3,84,0.00,,,0.00,Rainwise IP-100,2013-02-13 11:03:00,
2013-02-13 06:08:00,28.9,24.0,29.91,NNW,337,0.0,2.6,84,0.00,,,0.00,Rainwise IP-100,2013-02-13 11:08:00,
2013-02-13 06:13:00,29.0,24.0,29.91,NNW,337,0.0,0.0,84,0.00,,,0.00,Rainwise IP-100,2013-02-13 11:13:00,
2013-02-13 06:19:00,29.2,24.0,29.91,NNW,337,0.0,0.0,83,0.00,,,0.00,Rainwise IP-100,2013-02-13 11:19:00,
2013-02-13 06:24:00,29.1,24.0,29.91,NNW,337,1.4,1.4,83,0.00,,,0.00,Rainwise IP-100,2013-02-13 11:24:00,
2013-02-13 06:29:00,28.8,24.0,29.91,NNW,337,2.1,2.1,84,0.00,,,0.00,Rainwise IP-100,2013-02-13 11:29:00,
2013-02-13 06:34:00,28.4,24.0,29.92,NNW,337,2.3,2.8,85,0.00,,,0.00,Rainwise IP-100,2013-02-13 11:34:00,
2013-02-13 06:39:00,28.1,24.0,29.92,NNW,337,2.6,3.0,85,0.00,,,0.00,Rainwise IP-100,2013-02-13 11:39:00,
2013-02-13 06:44:00,28.2,24.0,29.92,NNW,337,2.6,3.0,85,0.00,,,0.00,Rainwise IP-100,2013-02-13 11:44:00,
2013-02-13 06:49:00,28.2,24.0,29.92,NNW,337,2.8,3.3,86,0.00,,,0.00,Rainwise IP-100,2013-02-13 11:49:00,
2013-02-13 06:54:00,28.0,24.0,29.92,NNW,337,3.5,3.5,86,0.00,,,0.00,Rainwise IP-100,2013-02-13 11:54:00,
2013-02-13 07:00:00,27.9,24.0,29.92,NNW,337,3.3,3.7,87,0.00,,,0.00,Rainwise IP-100,2013-02-13 12:00:00,
2013-02-13 07:05:00,27.8,24.0,29.92,NNW,337,4.4,4.7,88,0.00,,,0.00,Rainwise IP-100,2013-02-13 12:05:00,
2013-02-13 07:10:00,27.7,24.0,29.92,NNW,337,3.5,5.4,87,0.00,,,0.00,Rainwise IP-100,2013-02-13 12:10:00,
2013-02-13 07:15:00,28.0,24.0,29.92,NNW,337,4.2,5.4,87,0.00,,,0.00,Rainwise IP-100,2013-02-13 12:15:00,
2013-02-13 07:20:00,28.1,24.0,29.92,NNW,337,4.2,4.7,87,0.00,,,0.00,Rainwise IP-100,2013-02-13 12:20:00,
2013-02-13 07:25:00,28.3,24.0,29.92,NNW,337,4.7,6.3,87,0.00,,,0.00,Rainwise IP-100,2013-02-13 12:25:00,
2013-02-13 07:30:00,28.6,26.0,29.93,NNW,337,3.5,6.1,86,0.00,,,0.00,Rainwise IP-100,2013-02-13 12:30:00,
2013-02-13 07:36:00,29.4,26.0,29.92,NNW,337,3.7,5.4,85,0.00,,,0.00,Rainwise IP-100,2013-02-13 12:36:00,
2013-02-13 07:41:00,30.3,26.0,29.92,NNW,337,4.0,4.0,84,0.00,,,0.00,Rainwise IP-100,2013-02-13 12:41:00,
2013-02-13 07:46:00,31.0,26.0,29.92,NNW,337,3.7,4.9,82,0.00,,,0.00,Rainwise IP-100,2013-02-13 12:46:00,
2013-02-13 07:51:00,31.3,26.0,29.92,NNW,337,3.7,4.7,81,0.00,,,0.00,Rainwise IP-100,2013-02-13 12:51:00,
2013-02-13 07:56:00,31.4,26.0,29.93,NNW,337,2.8,4.2,80,0.00,,,0.00,Rainwise IP-100,2013-02-13 12:56:00,
2013-02-13 08:01:00,31.5,26.0,29.93,NNW,337,3.0,3.5,80,0.00,,,0.00,Rainwise IP-100,2013-02-13 13:01:00,
2013-02-13 08:06:00,32.2,26.0,29.92,NNW,337,2.6,3.7,79,0.00,,,0.00,Rainwise IP-100,2013-02-13 13:06:00,
2013-02-13 08:12:00,33.1,28.0,29.92,NNW,337,1.9,3.3,77,0.00,,,0.00,Rainwise IP-100,2013-02-13 13:12:00,
2013-02-13 08:17:00,33.7,28.0,29.93,NNW,337,1.9,2.8,75,0.00,,,0.00,Rainwise IP-100,2013-02-13 13:17:00,
2013-02-13 08:22:00,34.5,28.0,29.93,NNW,337,1.6,3.0,73,0.00,,,0.00,Rainwise IP-100,2013-02-13 13:22:00,
2013-02-13 08:27:00,35.3,26.0,29.92,NNW,337,3.3,3.7,71,0.00,,,0.00,Rainwise IP-100,2013-02-13 13:27:00,
2013-02-13 08:32:00,35.8,26.0,29.92,NNW,337,2.1,4.2,69,0.00,,,0.00,Rainwise IP-100,2013-02-13 13:32:00,
2013-02-13 08:37:00,36.0,26.0,29.92,NNW,337,2.3,2.8,67,0.00,,,0.00,Rainwise IP-100,2013-02-13 13:37:00,
2013-02-13 08:42:00,36.3,26.0,29.92,NNW,337,3.5,4.7,66,0.00,,,0.00,Rainwise IP-100,2013-02-13 13:42:00,
2013-02-13 08:47:00,36.6,26.0,29.92,NNW,337,3.5,4.2,64,0.00,,,0.00,Rainwise IP-100,2013-02-13 13:47:00,
2013-02-13 08:53:00,36.9,26.0,29.91,NNW,337,4.0,5.1,63,0.00,,,0.00,Rainwise IP-100,2013-02-13 13:53:00,
2013-02-13 08:58:00,37.2,24.0,29.91,NNW,337,5.6,6.5,61,0.00,,,0.00,Rainwise IP-100,2013-02-13 13:58:00,
2013-02-13 09:03:00,37.4,24.0,29.91,NNW,337,4.2,8.9,60,0.00,,,0.00,Rainwise IP-100,2013-02-13 14:03:00,
2013-02-13 09:08:00,37.3,24.0,29.91,NNW,337,4.7,7.7,58,0.00,,,0.00,Rainwise IP-100,2013-02-13 14:08:00,
2013-02-13 09:13:00,37.1,24.0,29.91,NNW,337,5.1,7.0,58,0.00,,,0.00,Rainwise IP-100,2013-02-13 14:13:00,
2013-02-13 09:18:00,37.3,24.0,29.90,NW,315,5.4,9.3,57,0.00,,,0.00,Rainwise IP-100,2013-02-13 14:18:00,
2013-02-13 09:23:00,37.3,24.0,29.90,NNW,337,8.2,11.0,57,0.00,,,0.00,Rainwise IP-100,2013-02-13 14:23:00,
2013-02-13 09:29:00,37.0,24.0,29.90,WNW,292,6.8,10.7,57,0.00,,,0.00,Rainwise IP-100,2013-02-13 14:29:00,
2013-02-13 09:34:00,36.8,24.0,29.90,WNW,292,6.1,10.3,57,0.00,,,0.00,Rainwise IP-100,2013-02-13 14:34:00,
2013-02-13 09:39:00,36.7,24.0,29.89,WNW,292,6.8,10.7,57,0.00,,,0.00,Rainwise IP-100,2013-02-13 14:39:00,
2013-02-13 09:44:00,36.8,24.0,29.89,NNW,337,5.6,8.6,57,0.00,,,0.00,Rainwise IP-100,2013-02-13 14:44:00,
2013-02-13 09:49:00,37.2,23.0,29.89,NNW,337,0.0,7.2,56,0.00,,,0.00,Rainwise IP-100,2013-02-13 14:49:00,
2013-02-13 09:54:00,37.9,24.0,29.90,NNW,337,4.7,4.9,55,0.00,,,0.00,Rainwise IP-100,2013-02-13 14:54:00,
2013-02-13 09:59:00,38.2,24.0,29.90,WNW,292,4.7,7.5,55,0.00,,,0.00,Rainwise IP-100,2013-02-13 14:59:00,
2013-02-13 10:04:00,38.1,24.0,29.90,WNW,292,3.5,6.5,55,0.00,,,0.00,Rainwise IP-100,2013-02-13 15:04:00,
2013-02-13 10:10:00,38.4,23.0,29.90,WSW,247,0.0,3.0,54,0.00,,,0.00,Rainwise IP-100,2013-02-13 15:10:00,
2013-02-13 10:15:00,39.3,24.0,29.89,WSW,247,1.4,1.6,53,0.00,,,0.00,Rainwise IP-100,2013-02-13 15:15:00,
2013-02-13 10:20:00,39.3,24.0,29.89,SE,135,6.3,6.3,55,0.00,,,0.00,Rainwise IP-100,2013-02-13 15:20:00,
2013-02-13 10:25:00,38.1,26.0,29.89,SSE,157,7.9,8.2,62,0.00,,,0.00,Rainwise IP-100,2013-02-13 15:25:00,
2013-02-13 10:30:00,37.3,28.0,29.89,SE,135,9.1,10.0,67,0.00,,,0.00,Rainwise IP-100,2013-02-13 15:30:00,
2013-02-13 10:35:00,36.3,28.0,29.89,SSE,157,4.2,9.6,70,0.00,,,0.00,Rainwise IP-100,2013-02-13 15:35:00,
2013-02-13 10:40:00,36.0,28.0,29.89,SSE,157,8.2,8.9,72,0.00,,,0.00,Rainwise IP-100,2013-02-13 15:40:00,
2013-02-13 10:46:00,36.1,29.0,29.88,SSE,157,8.4,8.4,74,0.00,,,0.00,Rainwise IP-100,2013-02-13 15:46:00,
2013-02-13 10:51:00,36.4,29.0,29.89,South,180,10.3,10.3,75,0.00,,,0.00,Rainwise IP-100,2013-02-13 15:51:00,
2013-02-13 10:56:00,36.8,31.0,29.90,South,180,11.0,11.7,75,0.00,,,0.00,Rainwise IP-100,2013-02-13 15:56:00,
2013-02-13 11:01:00,36.8,29.0,29.90,South,180,11.9,12.1,74,0.00,,,0.00,Rainwise IP-100,2013-02-13 16:01:00,
2013-02-13 11:06:00,36.5,29.0,29.90,SSE,157,13.3,13.8,74,0.00,,,0.00,Rainwise IP-100,2013-02-13 16:06:00,
2013-02-13 11:11:00,36.5,29.0,29.91,SSE,157,12.6,13.8,73,0.00,,,0.00,Rainwise IP-100,2013-02-13 16:11:00,
2013-02-13 11:16:00,36.6,29.0,29.91,SSE,157,11.9,13.1,72,0.00,,,0.00,Rainwise IP-100,2013-02-13 16:16:00,
2013-02-13 11:21:00,36.7,29.0,29.90,South,180,9.6,12.6,71,0.00,,,0.00,Rainwise IP-100,2013-02-13 16:21:00,
2013-02-13 11:27:00,36.8,28.0,29.91,South,180,11.9,14.0,70,0.00,,,0.00,Rainwise IP-100,2013-02-13 16:27:00,
2013-02-13 11:32:00,36.7,28.0,29.90,South,180,11.9,13.1,68,0.00,,,0.00,Rainwise IP-100,2013-02-13 16:32:00,
2013-02-13 11:37:00,36.6,28.0,29.90,South,180,11.2,12.6,68,0.00,,,0.00,Rainwise IP-100,2013-02-13 16:37:00,
2013-02-13 11:42:00,36.6,28.0,29.90,SSE,157,8.9,12.4,67,0.00,,,0.00,Rainwise IP-100,2013-02-13 16:42:00,
2013-02-13 11:47:00,36.6,28.0,29.90,South,180,8.6,10.3,66,0.00,,,0.00,Rainwise IP-100,2013-02-13 16:47:00,
2013-02-13 11:52:00,36.7,28.0,29.90,South,180,6.1,9.6,67,0.00,,,0.00,Rainwise IP-100,2013-02-13 16:52:00,
2013-02-13 11:57:00,37.0,26.0,29.89,South,180,8.4,10.0,65,0.00,,,0.00,Rainwise IP-100,2013-02-13 16:57:00,
2013-02-13 12:03:00,37.5,26.0,29.89,South,180,9.6,11.4,62,0.00,,,0.00,Rainwise IP-100,2013-02-13 17:03:00,
2013-02-13 12:08:00,38.1,26.0,29.89,South,180,6.8,11.9,59,0.00,,,0.00,Rainwise IP-100,2013-02-13 17:08:00,
2013-02-13 12:13:00,38.4,24.0,29.88,South,180,8.4,9.6,58,0.00,,,0.00,Rainwise IP-100,2013-02-13 17:13:00,
2013-02-13 12:18:00,38.4,24.0,29.88,South,180,7.9,9.8,58,0.00,,,0.00,Rainwise IP-100,2013-02-13 17:18:00,
2013-02-13 12:23:00,38.4,26.0,29.87,SSE,157,6.8,8.6,59,0.00,,,0.00,Rainwise IP-100,2013-02-13 17:23:00,
2013-02-13 12:28:00,38.4,26.0,29.87,South,180,5.6,7.5,60,0.00,,,0.00,Rainwise IP-100,2013-02-13 17:28:00,
2013-02-13 12:33:00,38.4,26.0,29.86,SSE,157,5.4,6.8,61,0.00,,,0.00,Rainwise IP-100,2013-02-13 17:33:00,
2013-02-13 12:38:00,38.3,26.0,29.86,SSE,157,4.7,7.0,62,0.00,,,0.00,Rainwise IP-100,2013-02-13 17:38:00,
2013-02-13 12:44:00,38.2,26.0,29.86,SSE,157,5.1,6.1,62,0.00,,,0.00,Rainwise IP-100,2013-02-13 17:44:00,
2013-02-13 12:49:00,38.1,26.0,29.85,SSE,157,4.9,5.4,63,0.00,,,0.00,Rainwise IP-100,2013-02-13 17:49:00,
2013-02-13 12:54:00,38.0,28.0,29.85,SSE,157,5.1,5.4,64,0.00,,,0.00,Rainwise IP-100,2013-02-13 17:54:00,
2013-02-13 12:59:00,38.0,26.0,29.85,SE,135,5.4,5.6,63,0.00,,,0.00,Rainwise IP-100,2013-02-13 17:59:00,
2013-02-13 13:04:00,37.8,26.0,29.84,SE,135,4.7,5.4,62,0.00,,,0.00,Rainwise IP-100,2013-02-13 18:04:00,
2013-02-13 13:09:00,37.6,26.0,29.84,SE,135,6.3,6.3,60,0.00,,,0.00,Rainwise IP-100,2013-02-13 18:09:00,
2013-02-13 13:14:00,37.7,24.0,29.83,SE,135,6.8,7.0,58,0.00,,,0.00,Rainwise IP-100,2013-02-13 18:14:00,
2013-02-13 13:20:00,37.8,24.0,29.83,SE,135,6.1,7.2,57,0.00,,,0.00,Rainwise IP-100,2013-02-13 18:20:00,
2013-02-13 13:25:00,38.0,24.0,29.82,SE,135,6.1,6.1,56,0.00,,,0.00,Rainwise IP-100,2013-02-13 18:25:00,
2013-02-13 13:30:00,38.2,24.0,29.82,SE,135,8.2,8.2,55,0.00,,,0.00,Rainwise IP-100,2013-02-13 18:30:00,
2013-02-13 13:35:00,38.3,24.0,29.81,SSE,157,6.8,8.2,56,0.00,,,0.00,Rainwise IP-100,2013-02-13 18:35:00,
2013-02-13 13:36:00,38.3,24.0,29.81,SE,135,7.5,8.2,57,0.00,,,0.00,Rainwise IP-100,2013-02-13 18:36:00,
2013-02-13 13:41:00,38.3,24.0,29.80,ESE,112,7.9,8.4,58,0.00,,,0.00,Rainwise IP-100,2013-02-13 18:41:00,
2013-02-13 13:46:00,37.8,26.0,29.80,ESE,112,8.4,9.1,60,0.00,,,0.00,Rainwise IP-100,2013-02-13 18:46:00,
2013-02-13 13:51:00,37.7,26.0,29.79,ESE,112,8.4,10.0,62,0.00,,,0.00,Rainwise IP-100,2013-02-13 18:51:00,
2013-02-13 13:56:00,37.7,26.0,29.79,ESE,112,9.1,9.3,63,0.00,,,0.00,Rainwise IP-100,2013-02-13 18:56:00,
2013-02-13 13:59:00,37.7,26.0,29.79,ESE,112,8.4,9.6,62,0.00,,,0.00,Rainwise IP-100,2013-02-13 18:59:00,
2013-02-13 14:00:00,37.7,26.0,29.79,ESE,112,7.9,9.6,62,0.00,,,0.00,Rainwise IP-100,2013-02-13 19:00:00,
2013-02-13 14:01:00,37.8,26.0,29.79,ESE,112,7.0,9.6,62,0.00,,,0.00,Rainwise IP-100,2013-02-13 19:01:00,
2013-02-13 14:06:00,37.9,26.0,29.79,ESE,112,7.5,8.6,60,0.00,,,0.00,Rainwise IP-100,2013-02-13 19:06:00,
2013-02-13 14:12:00,37.8,26.0,29.79,SE,135,7.0,8.9,61,0.00,,,0.00,Rainwise IP-100,2013-02-13 19:12:00,
2013-02-13 14:17:00,37.6,28.0,29.79,SE,135,7.0,7.9,65,0.00,,,0.00,Rainwise IP-100,2013-02-13 19:17:00,
2013-02-13 14:22:00,37.5,29.0,29.79,SE,135,5.6,7.9,69,0.00,,,0.00,Rainwise IP-100,2013-02-13 19:22:00,
2013-02-13 14:27:00,37.5,29.0,29.79,SE,135,5.4,6.3,70,0.00,,,0.00,Rainwise IP-100,2013-02-13 19:27:00,
2013-02-13 14:32:00,37.8,28.0,29.79,SE,135,5.1,6.3,67,0.00,,,0.00,Rainwise IP-100,2013-02-13 19:32:00,
2013-02-13 14:37:00,37.8,28.0,29.79,SE,135,5.4,6.3,66,0.00,,,0.00,Rainwise IP-100,2013-02-13 19:37:00,
2013-02-13 14:42:00,38.0,28.0,29.79,SE,135,7.0,7.2,65,0.00,,,0.00,Rainwise IP-100,2013-02-13 19:42:00,
2013-02-13 14:47:00,38.3,26.0,29.79,SSE,157,7.0,7.5,62,0.00,,,0.00,Rainwise IP-100,2013-02-13 19:47:00,
2013-02-13 14:52:00,38.4,26.0,29.80,SSE,157,7.7,7.7,59,0.00,,,0.00,Rainwise IP-100,2013-02-13 19:52:00,
2013-02-13 14:57:00,38.8,26.0,29.79,SSE,157,7.5,7.7,59,0.00,,,0.00,Rainwise IP-100,2013-02-13 19:57:00,
2013-02-13 15:02:00,39.0,26.0,29.78,SSE,157,6.8,7.9,59,0.00,,,0.00,Rainwise IP-100,2013-02-13 20:02:00,
2013-02-13 15:04:00,39.1,26.0,29.79,SSE,157,7.2,7.7,60,0.00,,,0.00,Rainwise IP-100,2013-02-13 20:04:00,
2013-02-13 15:09:00,39.0,28.0,29.79,SSE,157,4.4,7.5,61,0.00,,,0.00,Rainwise IP-100,2013-02-13 20:09:00,
2013-02-13 15:14:00,39.1,28.0,29.78,SSE,157,7.0,7.7,64,0.00,,,0.00,Rainwise IP-100,2013-02-13 20:14:00,
2013-02-13 15:16:00,39.1,29.0,29.78,SSE,157,7.7,7.7,65,0.00,,,0.00,Rainwise IP-100,2013-02-13 20:16:00,
2013-02-13 15:21:00,39.1,29.0,29.79,SSE,157,6.3,8.2,65,0.00,,,0.00,Rainwise IP-100,2013-02-13 20:21:00,
2013-02-13 15:26:00,39.0,29.0,29.78,SSE,157,4.9,7.5,67,0.00,,,0.00,Rainwise IP-100,2013-02-13 20:26:00,
2013-02-13 15:31:00,38.7,31.0,29.78,SSE,157,6.8,7.5,69,0.00,,,0.00,Rainwise IP-100,2013-02-13 20:31:00,
2013-02-13 15:36:00,37.9,29.0,29.77,ESE,112,5.8,8.9,71,0.00,,,0.00,Rainwise IP-100,2013-02-13 20:36:00,
2013-02-13 15:40:00,37.6,31.0,29.78,ESE,112,4.4,8.2,73,0.00,,,0.00,Rainwise IP-100,2013-02-13 20:40:00,
2013-02-13 15:45:00,37.2,31.0,29.78,SE,135,6.3,6.8,76,0.00,,,0.00,Rainwise IP-100,2013-02-13 20:45:00,
2013-02-13 15:51:00,37.1,31.0,29.77,SE,135,5.1,6.8,76,0.00,,,0.00,Rainwise IP-100,2013-02-13 20:51:00,
2013-02-13 15:56:00,37.2,31.0,29.78,SE,135,1.4,5.1,76,0.00,,,0.00,Rainwise IP-100,2013-02-13 20:56:00,
2013-02-13 16:01:00,37.3,31.0,29.77,SE,135,0.0,2.6,77,0.00,,,0.00,Rainwise IP-100,2013-02-13 21:01:00,
2013-02-13 16:06:00,37.5,32.0,29.77,ENE,67,1.4,3.0,77,0.00,,,0.00,Rainwise IP-100,2013-02-13 21:06:00,
2013-02-13 16:11:00,37.8,31.0,29.77,ENE,67,3.7,5.4,74,0.00,,,0.00,Rainwise IP-100,2013-02-13 21:11:00,
2013-02-13 16:16:00,38.3,31.0,29.77,ENE,67,2.8,4.0,72,0.00,,,0.00,Rainwise IP-100,2013-02-13 21:16:00,
2013-02-13 16:21:00,38.6,31.0,29.77,ENE,67,4.0,5.4,70,0.00,,,0.00,Rainwise IP-100,2013-02-13 21:21:00,
2013-02-13 16:26:00,38.7,29.0,29.77,ENE,67,0.0,5.1,68,0.00,,,0.00,Rainwise IP-100,2013-02-13 21:26:00,
2013-02-13 16:31:00,38.7,29.0,29.76,East,90,4.2,4.2,68,0.00,,,0.00,Rainwise IP-100,2013-02-13 21:31:00,
2013-02-13 16:37:00,38.6,29.0,29.75,ENE,67,1.2,5.4,66,0.00,,,0.00,Rainwise IP-100,2013-02-13 21:37:00,
2013-02-13 16:42:00,38.4,28.0,29.76,ENE,67,1.9,5.4,65,0.00,,,0.00,Rainwise IP-100,2013-02-13 21:42:00,
2013-02-13 16:47:00,38.5,28.0,29.77,ENE,67,0.0,3.0,64,0.00,,,0.00,Rainwise IP-100,2013-02-13 21:47:00,
2013-02-13 16:52:00,38.4,28.0,29.76,ENE,67,1.6,2.8,64,0.00,,,0.00,Rainwise IP-100,2013-02-13 21:52:00,
2013-02-13 16:57:00,38.4,28.0,29.76,ENE,67,1.4,3.3,64,0.00,,,0.00,Rainwise IP-100,2013-02-13 21:57:00,
2013-02-13 17:02:00,38.2,28.0,29.76,NE,45,3.0,4.2,64,0.00,,,0.00,Rainwise IP-100,2013-02-13 22:02:00,
2013-02-13 17:07:00,38.1,28.0,29.75,NE,45,4.0,4.7,64,0.00,,,0.00,Rainwise IP-100,2013-02-13 22:07:00,
2013-02-13 17:12:00,38.0,28.0,29.74,NE,45,4.0,5.1,64,0.00,,,0.00,Rainwise IP-100,2013-02-13 22:12:00,
2013-02-13 17:18:00,38.0,28.0,29.74,NNE,22,4.4,5.1,64,0.00,,,0.00,Rainwise IP-100,2013-02-13 22:18:00,
2013-02-13 17:23:00,37.9,28.0,29.73,NE,45,4.0,6.1,64,0.00,,,0.00,Rainwise IP-100,2013-02-13 22:23:00,
2013-02-13 17:28:00,37.9,26.0,29.72,NNE,22,1.6,5.4,63,0.00,,,0.00,Rainwise IP-100,2013-02-13 22:28:00,
2013-02-13 17:33:00,37.9,26.0,29.72,NNE,22,2.8,4.9,63,0.00,,,0.00,Rainwise IP-100,2013-02-13 22:33:00,
2013-02-13 17:38:00,37.9,26.0,29.72,NNE,22,3.3,4.7,63,0.00,,,0.00,Rainwise IP-100,2013-02-13 22:38:00,
2013-02-13 17:43:00,37.8,26.0,29.72,NNE,22,2.3,6.1,63,0.00,,,0.00,Rainwise IP-100,2013-02-13 22:43:00,
2013-02-13 17:48:00,38.0,28.0,29.73,NE,45,3.0,4.9,64,0.00,,,0.00,Rainwise IP-100,2013-02-13 22:48:00,
2013-02-13 17:53:00,38.2,26.0,29.73,ENE,67,0.0,3.7,63,0.00,,,0.00,Rainwise IP-100,2013-02-13 22:53:00,
2013-02-13 17:59:00,38.2,28.0,29.73,SSE,157,4.0,4.4,64,0.00,,,0.00,Rainwise IP-100,2013-02-13 22:59:00,
2013-02-13 18:04:00,37.7,28.0,29.73,ESE,112,4.2,7.2,66,0.00,,,0.00,Rainwise IP-100,2013-02-13 23:04:00,
2013-02-13 18:09:00,37.3,28.0,29.73,SE,135,6.3,7.5,68,0.00,,,0.00,Rainwise IP-100,2013-02-13 23:09:00,
2013-02-13 18:14:00,36.9,29.0,29.72,ESE,112,10.5,12.8,71,0.00,,,0.00,Rainwise IP-100,2013-02-13 23:14:00,
2013-02-13 18:19:00,36.6,29.0,29.73,ESE,112,9.8,12.1,73,0.00,,,0.00,Rainwise IP-100,2013-02-13 23:19:00,
2013-02-13 18:24:00,36.6,29.0,29.73,ESE,112,6.8,11.0,73,0.00,,,0.00,Rainwise IP-100,2013-02-13 23:24:00,
2013-02-13 18:29:00,36.9,28.0,29.72,NE,45,3.0,8.2,70,0.00,,,0.00,Rainwise IP-100,2013-02-13 23:29:00,
2013-02-13 18:34:00,36.9,28.0,29.72,NNE,22,4.0,7.5,67,0.00,,,0.00,Rainwise IP-100,2013-02-13 23:34:00,
2013-02-13 18:40:00,37.0,28.0,29.72,East,90,4.0,8.2,66,0.00,,,0.00,Rainwise IP-100,2013-02-13 23:40:00,
2013-02-13 18:45:00,37.4,26.0,29.72,East,90,7.2,7.2,65,0.00,,,0.00,Rainwise IP-100,2013-02-13 23:45:00,
2013-02-13 18:50:00,37.4,26.0,29.72,NE,45,3.5,7.2,64,0.00,,,0.00,Rainwise IP-100,2013-02-13 23:50:00,
2013-02-13 18:55:00,37.2,26.0,29.73,NE,45,3.3,6.8,63,0.00,,,0.00,Rainwise IP-100,2013-02-13 23:55:00,
2013-02-13 19:00:00,37.2,26.0,29.72,NE,45,3.0,5.6,64,0.00,,,0.00,Rainwise IP-100,2013-02-14 00:00:00,
2013-02-13 19:05:00,37.0,26.0,29.72,NE,45,2.8,4.9,64,0.00,,,0.00,Rainwise IP-100,2013-02-14 00:05:00,
2013-02-13 19:10:00,36.9,26.0,29.73,ENE,67,0.0,4.2,64,0.00,,,0.00,Rainwise IP-100,2013-02-14 00:10:00,
2013-02-13 19:15:00,36.9,26.0,29.73,ESE,112,3.7,3.7,64,0.00,,,0.00,Rainwise IP-100,2013-02-14 00:15:00,
2013-02-13 19:21:00,36.8,26.0,29.73,East,90,3.5,6.1,64,0.00,,,0.00,Rainwise IP-100,2013-02-14 00:21:00,
2013-02-13 19:26:00,36.9,26.0,29.73,East,90,4.0,5.6,65,0.00,,,0.00,Rainwise IP-100,2013-02-14 00:26:00,
2013-02-13 19:31:00,37.1,26.0,29.73,ESE,112,3.5,5.8,65,0.00,,,0.00,Rainwise IP-100,2013-02-14 00:31:00,
2013-02-13 19:36:00,37.0,26.0,29.73,East,90,1.6,4.2,65,0.00,,,0.00,Rainwise IP-100,2013-02-14 00:36:00,
2013-02-13 19:41:00,36.9,26.0,29.73,East,90,1.4,3.5,65,0.00,,,0.00,Rainwise IP-100,2013-02-14 00:41:00,
2013-02-13 19:46:00,37.0,26.0,29.73,ENE,67,0.0,2.8,65,0.00,,,0.00,Rainwise IP-100,2013-02-14 00:46:00,
2013-02-13 19:51:00,36.8,26.0,29.73,ENE,67,1.2,1.6,65,0.00,,,0.00,Rainwise IP-100,2013-02-14 00:51:00,
2013-02-13 19:56:00,36.6,26.0,29.72,ESE,112,2.1,3.0,65,0.00,,,0.00,Rainwise IP-100,2013-02-14 00:56:00,
2013-02-13 20:01:00,36.7,28.0,29.72,East,90,0.0,3.3,66,0.00,,,0.00,Rainwise IP-100,2013-02-14 01:01:00,
2013-02-13 20:07:00,36.7,28.0,29.72,ENE,67,0.0,0.0,67,0.00,,,0.00,Rainwise IP-100,2013-02-14 01:07:00,
2013-02-13 20:12:00,36.6,28.0,29.72,ENE,67,0.0,2.1,67,0.00,,,0.00,Rainwise IP-100,2013-02-14 01:12:00,
2013-02-13 20:17:00,36.5,28.0,29.72,ENE,67,0.0,1.9,66,0.00,,,0.00,Rainwise IP-100,2013-02-14 01:17:00,
2013-02-13 20:22:00,36.4,26.0,29.72,ENE,67,1.2,1.9,66,0.00,,,0.00,Rainwise IP-100,2013-02-14 01:22:00,
2013-02-13 20:27:00,36.4,26.0,29.72,ENE,67,1.2,1.6,66,0.00,,,0.00,Rainwise IP-100,2013-02-14 01:27:00,
2013-02-13 20:32:00,36.3,26.0,29.72,ESE,112,1.4,3.5,67,0.00,,,0.00,Rainwise IP-100,2013-02-14 01:32:00,
2013-02-13 20:37:00,36.3,26.0,29.72,ESE,112,0.0,2.8,69,0.00,,,0.00,Rainwise IP-100,2013-02-14 01:37:00,
2013-02-13 20:42:00,36.2,26.0,29.72,ESE,112,0.0,0.0,69,0.00,,,0.00,Rainwise IP-100,2013-02-14 01:42:00,
2013-02-13 20:48:00,36.2,28.0,29.72,SW,225,2.1,2.6,70,0.00,,,0.00,Rainwise IP-100,2013-02-14 01:48:00,
2013-02-13 20:53:00,36.5,28.0,29.72,SW,225,0.0,2.6,70,0.00,,,0.00,Rainwise IP-100,2013-02-14 01:53:00,
2013-02-13 20:58:00,36.6,28.0,29.73,South,180,3.3,3.3,69,0.00,,,0.00,Rainwise IP-100,2013-02-14 01:58:00,
2013-02-13 21:03:00,36.5,29.0,29.73,South,180,2.6,3.7,71,0.00,,,0.00,Rainwise IP-100,2013-02-14 02:03:00,
2013-02-13 21:08:00,36.2,29.0,29.73,East,90,2.6,3.5,74,0.00,,,0.00,Rainwise IP-100,2013-02-14 02:08:00,
2013-02-13 21:13:00,36.3,29.0,29.73,East,90,0.0,4.2,74,0.00,,,0.00,Rainwise IP-100,2013-02-14 02:13:00,
2013-02-13 21:18:00,36.3,29.0,29.73,NE,45,2.6,4.2,74,0.00,,,0.00,Rainwise IP-100,2013-02-14 02:18:00,
2013-02-13 21:24:00,36.0,29.0,29.73,NE,45,0.0,3.7,75,0.00,,,0.00,Rainwise IP-100,2013-02-14 02:24:00,
2013-02-13 21:29:00,36.0,29.0,29.73,NE,45,1.2,2.3,75,0.00,,,0.00,Rainwise IP-100,2013-02-14 02:29:00,
2013-02-13 21:34:00,36.0,29.0,29.73,NE,45,0.0,2.1,75,0.00,,,0.00,Rainwise IP-100,2013-02-14 02:34:00,
2013-02-13 21:39:00,35.9,29.0,29.72,NE,45,0.0,2.8,75,0.00,,,0.00,Rainwise IP-100,2013-02-14 02:39:00,
2013-02-13 21:44:00,35.8,29.0,29.73,NE,45,0.0,1.9,75,0.00,,,0.00,Rainwise IP-100,2013-02-14 02:44:00,
2013-02-13 21:49:00,35.7,29.0,29.73,NE,45,0.0,0.0,75,0.00,,,0.00,Rainwise IP-100,2013-02-14 02:49:00,
2013-02-13 21:54:00,35.6,29.0,29.72,NE,45,0.0,1.2,75,0.00,,,0.00,Rainwise IP-100,2013-02-14 02:54:00,
2013-02-13 21:59:00,35.6,29.0,29.72,NE,45,0.0,0.0,76,0.00,,,0.00,Rainwise IP-100,2013-02-14 02:59:00,
2013-02-13 22:05:00,35.6,29.0,29.72,NE,45,0.0,1.2,76,0.00,,,0.00,Rainwise IP-100,2013-02-14 03:05:00,
2013-02-13 22:10:00,35.6,29.0,29.72,NE,45,0.0,1.2,76,0.00,,,0.00,Rainwise IP-100,2013-02-14 03:10:00,
2013-02-13 22:15:00,35.7,29.0,29.72,NW,315,2.6,5.4,74,0.00,,,0.00,Rainwise IP-100,2013-02-14 03:15:00,
2013-02-13 22:20:00,35.9,28.0,29.72,NW,315,3.0,4.4,73,0.00,,,0.00,Rainwise IP-100,2013-02-14 03:20:00,
2013-02-13 22:25:00,36.1,28.0,29.71,NW,315,5.8,7.0,72,0.00,,,0.00,Rainwise IP-100,2013-02-14 03:25:00,
2013-02-13 22:30:00,36.4,28.0,29.71,North,360,11.4,11.4,71,0.00,,,0.00,Rainwise IP-100,2013-02-14 03:30:00,
2013-02-13 22:35:00,36.5,29.0,29.72,NNW,337,7.2,13.3,71,0.00,,,0.00,Rainwise IP-100,2013-02-14 03:35:00,
2013-02-13 22:41:00,36.3,29.0,29.72,NNW,337,11.9,14.0,74,0.00,,,0.00,Rainwise IP-100,2013-02-14 03:41:00,
2013-02-13 22:46:00,35.9,29.0,29.71,NW,315,9.3,12.4,76,0.00,,,0.00,Rainwise IP-100,2013-02-14 03:46:00,
2013-02-13 22:51:00,35.6,31.0,29.72,NNW,337,8.2,14.5,79,0.00,,,0.00,Rainwise IP-100,2013-02-14 03:51:00,
2013-02-13 22:56:00,35.5,31.0,29.72,North,360,7.0,14.9,81,0.00,,,0.00,Rainwise IP-100,2013-02-14 03:56:00,
2013-02-13 23:01:00,35.4,29.0,29.72,NNW,337,7.7,7.9,82,0.00,,,0.00,Rainwise IP-100,2013-02-14 04:01:00,
2013-02-13 23:06:00,35.3,31.0,29.72,North,360,6.8,10.0,84,0.00,,,0.00,Rainwise IP-100,2013-02-14 04:06:00,
2013-02-13 23:11:00,35.1,31.0,29.72,NNW,337,9.8,11.9,85,0.00,,,0.00,Rainwise IP-100,2013-02-14 04:11:00,
2013-02-13 23:16:00,34.9,31.0,29.73,NNW,337,9.1,12.1,86,0.00,,,0.00,Rainwise IP-100,2013-02-14 04:16:00,
2013-02-13 23:22:00,34.8,31.0,29.72,NNW,337,5.8,12.1,87,0.00,,,0.00,Rainwise IP-100,2013-02-14 04:22:00,
2013-02-13 23:27:00,34.7,32.0,29.72,NNW,337,8.9,13.3,88,0.00,,,0.00,Rainwise IP-100,2013-02-14 04:27:00,
2013-02-13 23:32:00,34.7,32.0,29.72,North,360,8.2,11.0,88,0.00,,,0.00,Rainwise IP-100,2013-02-14 04:32:00,
2013-02-13 23:37:00,34.7,32.0,29.72,NNW,337,6.8,11.4,89,0.00,,,0.00,Rainwise IP-100,2013-02-14 04:37:00,
2013-02-13 23:42:00,34.6,32.0,29.72,North,360,5.8,12.8,89,0.00,,,0.00,Rainwise IP-100,2013-02-14 04:42:00,
2013-02-13 23:47:00,34.4,32.0,29.72,North,360,8.2,12.1,90,0.00,,,0.00,Rainwise IP-100,2013-02-14 04:47:00,
2013-02-13 23:52:00,34.2,32.0,29.72,North,360,2.6,10.0,90,0.00,,,0.00,Rainwise IP-100,2013-02-14 04:52:00,
2013-02-13 23:58:00,34.1,32.0,29.72,NNW,337,6.5,11.0,91,0.00,,,0.00,Rainwise IP-100,2013-02-14 04:58:00,